Content
SEND FEEDBACK

Daily
Averages
Monthly
Summary
France

LILLE, FRANCE


Home > Europe > France
Elevation: 171 feet     Latitude: 50 34N     Longitude: 003 06E

WEATHER
 
SELECT A DAY
Number of Records: 276,299;   Date Range: 7/1/96 - 10/20/14
 
SHARE

PRINT THIS DATA

[ ← Previous Day ]
WEATHER ALMANAC - JANUARY 2, 2013
[ Next Day → ]
[ °C ]   °F
Weather ElementAverageHighLow
Temperature42.9 °F46.4 °F (2:00 pm)37.4 °F (9:30 am)
Dewpoint39.4 °F44.6 °F (11:00 pm)35 °F (1:00 am)
Humidity86.8 %100 % (11:00 pm)76 % (2:00 pm)
Barometer30.22 in30.35 in (7:00 pm)30.01 in (1:00 am)
Wind Speed8.5 mph15 mph (10:00 pm)
Weather ElementAverage
Visibility6.4 mi
Wind DirectionWSW (243.3 °)

Weather ElementTotal
Precipitation---
Heating Degree Days23.1 (Base 65)
Averaged from 46 records on January 2, 2013
WEATHER CONDITIONS BREAKOUT
WIND DIRECTION BREAKOUT
WEATHER BY HOUR - JANUARY 2, 2013
[ °C ]   °F
Local TimeTemperatureDewpointHumidityBarometerVisibilityWind DirectionWind SpeedGust SpeedPrecipitationEventsConditions
1:00 AM40.0 °F35.0 °F78 %30.04 in12.0 miWSW (240°)8.1 mphMostly Cloudy
1:00 AM39.2 °F35.6 °F87 %30.01 in6.2 miWSW (240°)8.1 mphMostly Cloudy
1:30 AM39.2 °F35.6 °F87 %30.01 in6.2 miWSW (250°)6.9 mph
2:00 AM39.2 °F35.6 °F87 %30.04 in6.2 miWest (270°)8.1 mph
2:30 AM41.0 °F35.6 °F81 %30.04 in6.2 miWest (270°)9.2 mph
3:00 AM41.0 °F37.4 °F87 %30.06 in6.2 miWest (270°)8.1 mph
3:30 AM41.0 °F37.4 °F87 %30.06 in6.2 miWest (270°)9.2 mph
4:00 AM41.0 °F37.4 °F87 %30.09 in6.2 miWest (270°)8.1 mphMostly Cloudy
5:00 AM41.0 °F37.4 °F87 %30.09 in6.2 miWest (270°)8.1 mphMostly Cloudy
5:30 AM41.0 °F37.4 °F87 %30.09 in6.2 miWest (270°)9.2 mphMostly Cloudy
6:00 AM41.0 °F37.4 °F87 %30.12 inWest (270°)8.1 mphClear
6:30 AM41.0 °F37.4 °F87 %30.12 inWest (270°)6.9 mphClear
7:00 AM41.0 °F38.0 °F84 %30.17 in9.0 miWest (270°)6.9 mphPartly Cloudy
7:00 AM41.0 °F37.4 °F87 %30.15 in6.2 miWest (270°)6.9 mphMostly Cloudy
7:30 AM41.0 °F37.4 °F87 %30.15 inWest (280°)8.1 mphClear
8:00 AM39.2 °F37.4 °F93 %30.18 in6.2 miWest (280°)8.1 mphPartly Cloudy
8:30 AM39.2 °F35.6 °F87 %30.21 in6.2 miWest (280°)8.1 mphScattered Clouds
9:00 AM39.2 °F35.6 °F87 %30.21 in6.2 miWest (260°)6.9 mphPartly Cloudy
9:30 AM37.4 °F35.6 °F93 %30.21 in6.2 miWest (260°)5.8 mphPartly Cloudy
10:00 AM39.2 °F37.4 °F93 %30.24 inWSW (240°)4.6 mphClear
10:30 AM41.0 °F37.4 °F87 %30.24 inWest (260°)5.8 mphClear
11:00 AM42.8 °F39.2 °F87 %30.24 inWSW (250°)5.8 mphClear
11:30 AM42.8 °F39.2 °F87 %30.27 inWSW (240°)5.8 mphClear
12:00 PM42.8 °F39.2 °F87 %30.27 inWSW (240°)6.9 mphClear
1:00 PM45.0 °F40.0 °F77 %30.30 in12.0 miWSW (240°)9.2 mphClear
2:00 PM46.4 °F39.2 °F76 %30.30 in6.2 miWSW (240°)8.1 mphMostly Cloudy
2:30 PM46.4 °F41.0 °F81 %30.30 in6.2 miWSW (240°)8.1 mphMostly Cloudy
3:00 PM46.4 °F39.2 °F76 %30.30 in6.2 miWSW (250°)8.1 mphOvercast
3:30 PM46.4 °F41.0 °F81 %30.30 inWSW (250°)8.1 mphClear
4:00 PM46.4 °F41.0 °F81 %30.30 inWSW (240°)6.9 mphClear
4:30 PM46.4 °F41.0 °F81 %30.30 in6.2 miWSW (240°)6.9 mphRainLight Rain
5:00 PM46.4 °F41.0 °F81 %30.33 in6.2 miSW (230°)6.9 mphRainLight Rain
5:30 PM46.4 °F41.0 °F81 %30.30 in6.2 miSSW (210°)6.9 mphRainLight Rain
6:00 PM44.6 °F41.0 °F87 %30.30 in6.2 miSSW (210°)8.1 mphRainLight Rain
6:30 PM44.6 °F42.8 °F93 %30.33 in6.2 miSSW (210°)8.1 mphRainLight Rain
7:00 PM46.4 °F42.8 °F87 %30.33 in6.2 miSSW (210°)5.8 mphRainLight Rain
7:00 PM46.0 °F42.0 °F83 %30.35 in11.0 miSSW (210°)5.8 mphRainLight Rain
7:30 PM46.4 °F42.8 °F87 %30.33 in4.3 miWSW (240°)11.5 mphRainLight Rain
8:00 PM44.6 °F42.8 °F93 %30.33 in6.2 miSSW (210°)10.4 mphMostly Cloudy
8:30 PM44.6 °F42.8 °F93 %30.33 in6.2 miSouth (190°)12.7 mphMostly Cloudy
9:00 PM44.6 °F42.8 °F93 %30.33 in6.2 miSSW (210°)13.8 mphMostly Cloudy
9:30 PM44.6 °F42.8 °F93 %30.33 in5.0 miSSW (210°)12.7 mphLight Drizzle
10:00 PM44.6 °F42.8 °F93 %30.33 in5.0 miSSW (210°)15.0 mphLight Drizzle
10:30 PM44.6 °F42.8 °F93 %30.33 in5.0 miSW (220°)12.7 mphLight Drizzle
11:00 PM44.6 °F44.6 °F100 %30.33 in1.9 miSSW (210°)15.0 mphLight Drizzle
11:30 PM46.4 °F44.6 °F93 %30.33 in3.7 miSW (220°)12.7 mphLight Drizzle
Hourly data recorded from LFQQ, located miles away from Lille, France







STORIES FROM OUR PARTNERS